User: anonymous   Login
Location: Oshawa
(43.9000°N, 78.8670°W)
Time: 12:54:59
(UTC-05:00)
Language:

Thor Agena Rocket - Orbit

View from above orbital plane
View from above orbital plane
View from above satellite
View from above satellite

Ground track
Ground track

The orbit data is extracted from the following two-line orbital elements,

1 00733U 64002A   16039.62240332  .00000124  00000-0  63620-4 0  9994
2 00733  99.0813 194.3382 0034161 173.5342 186.6287 14.32185252711511
Epoch (UTC): 08 February 2016 14:56:15
Eccentricity: 0.0034161
inclination: 99.0813°
perigee height: 760 km
apogee height: 809 km
right ascension of ascending node: 194.3382°
argument of perigee: 173.5342°
revolutions per day: 14.32185252
mean anomaly at epoch: 186.6287°
orbit number at epoch: 71151

The dashed part of the orbit path shows where the satellite is in the earth's shadow,  

DLR